This is the latest recevied weather packets stored in our database for station/object IZ1HKE-13. If no packets are shown the sender has not sent any weather packets the latest 1 day(s).
| Time | Temp. | Humidity | Pressure | Rain* | Wind** | Luminosity | Snow |
|---|---|---|---|---|---|---|---|
| 1777970230 | 11.67° C | 99% | 1020.4 hPa | 0.25 mm | 0 m/s | 74 W/m² | - |
| 1777969542 | 11.67° C | 98% | 1020.3 hPa | 0.25 mm | 0 m/s | 77 W/m² | - |
| 1777968855 | 11.67° C | 99% | 1020.4 hPa | 0 mm | 0 m/s | 51 W/m² | - |
| 1777968167 | 11.67° C | 99% | 1020.3 hPa | 0 mm | 0 m/s | 47 W/m² | - |
| 1777967480 | 11.67° C | 99% | 1020.3 hPa | 0 mm | 0 m/s | 46 W/m² | - |
| 1777966792 | 11.11° C | 99% | 1020.2 hPa | 0 mm | 0 m/s | 42 W/m² | - |
| 1777966105 | 11.11° C | 99% | 1020.1 hPa | 0 mm | 0 m/s | 45 W/m² | - |
| 1777965418 | 11.67° C | 99% | 1020.2 hPa | 0 mm | 0 m/s | 38 W/m² | - |
| 1777964730 | 11.11° C | 99% | 1020.1 hPa | 0 mm | 0 m/s | 50 W/m² | - |
| 1777964043 | 11.11° C | 99% | 1020.1 hPa | 0 mm | 0 m/s | 28 W/m² | - |
| 1777963355 | 11.11° C | 99% | 1020.2 hPa | 0 mm | 0 m/s | 15 W/m² | - |
| 1777962668 | 11.11° C | 99% | 1020.2 hPa | 0.25 mm | 0.45 m/s, 309° | 8 W/m² | - |
| 1777961980 | 11.11° C | 99% | 1020.1 hPa | 0.25 mm | 0 m/s | 13 W/m² | - |
| 1777961297 | 11.67° C | 99% | 1019.9 hPa | 0.25 mm | 0.45 m/s, 309° | 15 W/m² | - |
| 1777960605 | 11.67° C | 99% | 1019.9 hPa | 1.27 mm | 0 m/s | 11 W/m² | - |
| 1777959917 | 11.67° C | 99% | 1019.7 hPa | 2.79 mm | 0 m/s | 17 W/m² | - |
| 1777959230 | 11.67° C | 99% | 1019.6 hPa | 4.57 mm | 0 m/s | 14 W/m² | - |
| 1777958542 | 11.67° C | 99% | 1019.8 hPa | 5.84 mm | 0 m/s | 8 W/m² | - |
| 1777957855 | 11.67° C | 99% | 1019.5 hPa | 7.11 mm | 0 m/s | 7 W/m² | - |
| 1777957167 | 11.67° C | 99% | 1019.8 hPa | 7.87 mm | 0 m/s | 4 W/m² | - |
| 1777956480 | 11.67° C | 99% | 1019.7 hPa | 8.13 mm | 0 m/s | 2 W/m² | - |
| 1777955792 | 11.67° C | 99% | 1020 hPa | 7.11 mm | 0 m/s | 0 W/m² | - |
| 1777955105 | 11.11° C | 99% | 1020 hPa | 5.84 mm | 0 m/s | 0 W/m² | - |
| 1777954418 | 11.67° C | 99% | 1020.1 hPa | 4.83 mm | 0 m/s | 0 W/m² | - |
* Rain latest hour (hover to see other rain measurements)
** Current wind speed in m/s (hover to see current wind gust speed)